Showing default

GALILEO 5 (261), 40128

Orbit data source: Space-Track

GALILEO 5 (261), 40128 is a payload satellite owned by GNSS Agency (ESA) in MEO that was launched on Fri, 22 Aug 2014 UTC via a SOYUZ-ST-B launch vehicle from the French Guiana (FRGUI). Payload-class satellites include a variety of spacecraft equipped with specific instruments for various scientific and technological missions. These include communications satellites like Starlink; space stations such as the ISS; scientific satellites like the Hubble; Earth observation satellites from companies like Planet Labs, Umbra, and HawkEye 360; GPS; miniature CubeSats for education and research; and military/defense satellites.

Loading next visibility...
Identifier
40128, 2014-050A
Orbit
MEO
Country
Flag of ESAESA
Related business
Manufacturer
OHB
Mission
On reserve Civil Navigation
Bus & Motor
GALILEOSAT, AOCS
Mass
733 kg wet, 700 kg dry
Launch date (UTC)
2014-08-22 (12 years ago)
Launch vehicle
SOYUZ-ST-B
Launch site
French Guiana (FRGUI)
Object type
Payload
Rocket body
Debris
Shape & HBR
Box + 2 Pan, 7.3 m
Radar Cross Section
9.223 m², Large (>1 m²)

Expand to show TLE details & history
Last TLE update: 1 day ago

TLE from 1 day ago
0 GALILEO 5 (261)
1 40128U 14050A   26126.37604272 -.00000039  00000-0  00000+0 0  9995
2 40128  48.9220 275.1487 1668066 177.7585 183.1102  1.85520109 77549
Epoch: 2026-05-06T09:01Z
TLE epoch observation values (Epoch: 2026-05-06T09:01:30.091Z)
Latitude
Longitude
-84.48698°
Altitude
26,257.372 km
Speed
3.191 km/s
True Right ascension
18h 20m 30s
True Declination
0° 00' 00"
Sunlit
Object was in daylight at epoch
Visualization orbit readout
Latitude
Unknown
Longitude
Unknown
Altitude
Unknown
Speed
Unknown
Apparent Right ascension
Unknown
Apparent Declination
Unknown
Sunlit
N/A
Visualization observer readout
Local Sidereal Time
21:27:50
Azimuth
Unknown
Elevation
Unknown
Doppler factor
Unknown
Orbital elements
Apogee altitude
26,266.418 km
Perigee altitude
16,932.691 km
Semi-major axis
27,977.692 km
Eccentricity
0.16681
Inclination
48.922°
RAAN
275.1487°
Arg. of periapsis
177.7585°
True anomaly
182.25272°
Mean anomaly
183.1102°
Eccentric anomaly
182.6657°
Mean motion
0.46379 °/min
Orbital period
776.21 mins
BSTAR
0
Loading maneuver chart data...
Computing Atmospheric mass density...
Loading historical data...
Loading historical data...
Loading historical data...
Loading historical data...
Loading historical data...
Loading historical data...
Loading historical data...
Other satellites on launch #50 in the year 2014 (2014-08-22 UTC)

Documentation

Showing up to 5 results
|